This is the latest recevied weather packets stored in our database for station/object KB3UMW-13. If no packets are shown the sender has not sent any weather packets the latest 10 day(s).
| Time | Temp. | Humidity | Pressure | Rain* | Wind** | Luminosity | Snow |
|---|---|---|---|---|---|---|---|
| 1778000710 | 22.78° C | 46% | 1012.1 hPa | 0 mm | - | 258 W/m² | - |
| 1778000406 | 22.22° C | 45% | 1012 hPa | 0 mm | - | 860 W/m² | - |
| 1778000102 | 22.78° C | 47% | 1012.1 hPa | 0 mm | - | 849 W/m² | - |
| 1777999797 | 22.22° C | 46% | 1012.1 hPa | 0 mm | - | 822 W/m² | - |
| 1777999494 | 21.67° C | 45% | 1012 hPa | 0 mm | - | 863 W/m² | - |
| 1777999192 | 22.22° C | 45% | 1012.6 hPa | 0 mm | - | 905 W/m² | - |
| 1777998890 | 21.67° C | 49% | 1012.3 hPa | 0 mm | - | 863 W/m² | - |
| 1777998590 | 23.33° C | 47% | 1012.5 hPa | 0 mm | - | 810 W/m² | - |
| 1777998285 | 22.78° C | 47% | 1012.6 hPa | 0 mm | - | 841 W/m² | - |
| 1777997982 | 21.67° C | 48% | 1012.8 hPa | 0 mm | - | 813 W/m² | - |
| 1777997678 | 22.22° C | 45% | 1012.8 hPa | 0 mm | - | 835 W/m² | - |
| 1777997376 | 22.22° C | 43% | 1012.9 hPa | 0 mm | - | 829 W/m² | - |
| 1777997074 | 21.67° C | 53% | 1012.8 hPa | 0 mm | - | 812 W/m² | - |
| 1777996770 | 20° C | 49% | 1012.8 hPa | 0 mm | - | 873 W/m² | - |
| 1777996467 | 20.56° C | 50% | 1013 hPa | 0 mm | - | 890 W/m² | - |
| 1777996164 | 21.11° C | 49% | 1013.1 hPa | 0 mm | - | 891 W/m² | - |
| 1777995860 | 21.11° C | 48% | 1012.8 hPa | 0 mm | - | 892 W/m² | - |
| 1777995556 | 20.56° C | 49% | 1012.9 hPa | 0 mm | - | 492 W/m² | - |
| 1777995253 | 20.56° C | 49% | 1013.2 hPa | 0 mm | - | 207 W/m² | - |
| 1777994950 | 21.67° C | 49% | 1012.8 hPa | 0 mm | - | 500 W/m² | - |
| 1777994648 | 21.67° C | 57% | 1012.9 hPa | 0 mm | - | 788 W/m² | - |
| 1777994347 | 21.11° C | 53% | 1012.7 hPa | 0 mm | - | 785 W/m² | - |
| 1777994044 | 19.44° C | 55% | 1012.9 hPa | 0 mm | - | 715 W/m² | - |
| 1777993741 | 18.89° C | 55% | 1012.8 hPa | 0 mm | - | 202 W/m² | - |
| 1777993433 | 19.44° C | 54% | 1012.8 hPa | 0 mm | - | 620 W/m² | - |
* Rain latest hour (hover to see other rain measurements)
** Current wind speed in m/s (hover to see current wind gust speed)